When you browse on this site, cookies collect data to enhance your experience and personalize the content and advertising you see.
Visit our Privacy Policy to learn more. By continuing to use the site, you agree to this use of cookies and data.
  • In Hungary
  • List of Countries
  • For 7 days
  • Water Temperature
  • Weather Map
  • News
  • Weather Widgets
  • user-avatar
    Login

    Hourly Weather Ejszeryszki

    Today, 14 December, Saturday

    Time Temperature Precipitation Wind Pressure Humidity
    00:00 -2°C° 0 mm 7 mps 730 mmHg 85%
    01:00 -2°C° 0 mm 7 mps 730 mmHg 85%
    02:00 -2°C° 0 mm 6 mps 730 mmHg 83%
    03:00 -2°C° 0 mm 6 mps 730 mmHg 85%
    04:00 -1°C° 0 mm 7 mps 729 mmHg 86%
    05:00 -1°C° 0 mm 7 mps 729 mmHg 87%
    06:00 -1°C° 0 mm 7 mps 729 mmHg 87%
    07:00 -1°C° 0 mm 7 mps 729 mmHg 87%
    08:00 -1°C° 0 mm 7 mps 730 mmHg 85%
    09:00 0°C° 0 mm 7 mps 730 mmHg 84%
    10:00 0°C° 0 mm 7 mps 730 mmHg 84%
    11:00 0°C° 0 mm 8 mps 730 mmHg 84%
    12:00 0°C° 0 mm 8 mps 730 mmHg 85%
    13:00 0°C° 0 mm 7 mps 730 mmHg 86%
    14:00 0°C° 0 mm 7 mps 730 mmHg 87%
    15:00 0°C° 0.2 mm 7 mps 730 mmHg 89%
    16:00 +1°C° 0.2 mm 6 mps 730 mmHg 90%
    17:00 +1°C° 0.2 mm 6 mps 730 mmHg 92%
    18:00 +1°C° 0.1 mm 5 mps 730 mmHg 91%
    19:00 +1°C° 0.1 mm 5 mps 730 mmHg 91%
    20:00 +1°C° 0.1 mm 4 mps 729 mmHg 90%
    21:00 +1°C° 0 mm 5 mps 729 mmHg 90%
    22:00 +1°C° 0 mm 5 mps 729 mmHg 90%
    23:00 +1°C° 0 mm 5 mps 729 mmHg 89%

    Tomorrow, 15 December, Sunday

    Time Temperature Precipitation Wind Pressure Humidity
    00:00 +1°C° 0.4 mm 5 mps 729 mmHg 91%
    01:00 +1°C° 0.4 mm 5 mps 729 mmHg 94%
    02:00 +1°C° 0.4 mm 5 mps 729 mmHg 96%
    03:00 +1°C° 0.3 mm 6 mps 729 mmHg 94%
    04:00 +1°C° 0.3 mm 6 mps 730 mmHg 91%
    05:00 0°C° 0.3 mm 7 mps 730 mmHg 89%
    06:00 0°C° 0 mm 7 mps 731 mmHg 87%
    07:00 0°C° 0 mm 7 mps 731 mmHg 85%
    08:00 +1°C° 0 mm 6 mps 732 mmHg 82%
    09:00 +1°C° 0 mm 6 mps 733 mmHg 82%
    10:00 +1°C° 0 mm 6 mps 733 mmHg 81%
    11:00 +1°C° 0 mm 6 mps 734 mmHg 80%
    12:00 +1°C° 0 mm 6 mps 735 mmHg 79%
    13:00 +1°C° 0 mm 6 mps 735 mmHg 77%
    14:00 +1°C° 0 mm 6 mps 736 mmHg 75%
    15:00 +1°C° 0 mm 6 mps 736 mmHg 78%
    16:00 0°C° 0 mm 5 mps 736 mmHg 81%
    17:00 0°C° 0 mm 4 mps 736 mmHg 83%
    18:00 0°C° 0.4 mm 5 mps 735 mmHg 85%
    19:00 -1°C° 0.4 mm 6 mps 735 mmHg 87%
    20:00 -1°C° 0.4 mm 7 mps 735 mmHg 90%
    21:00 +1°C° 0.1 mm 6 mps 736 mmHg 89%
    22:00 +1°C° 0.1 mm 6 mps 736 mmHg 89%
    23:00 +2°C° 0.1 mm 5 mps 736 mmHg 89%

    Day after tomorrow, 16 December, Monday

    Time Temperature Precipitation Wind Pressure Humidity
    00:00 +1°C° 0 mm 6 mps 737 mmHg 86%
    01:00 +1°C° 0 mm 6 mps 738 mmHg 84%
    02:00 +1°C° 0 mm 6 mps 738 mmHg 81%
    03:00 +1°C° 0 mm 6 mps 739 mmHg 81%
    04:00 -1°C° 0 mm 6 mps 739 mmHg 81%
    05:00 -1°C° 0 mm 7 mps 740 mmHg 81%
    06:00 -1°C° 0 mm 6 mps 740 mmHg 83%
    07:00 -1°C° 0 mm 6 mps 741 mmHg 84%
    08:00 0°C° 0 mm 5 mps 741 mmHg 86%
    09:00 0°C° 0 mm 5 mps 742 mmHg 86%
    10:00 0°C° 0 mm 5 mps 742 mmHg 85%
    11:00 +1°C° 0 mm 5 mps 743 mmHg 84%
    12:00 +1°C° 0 mm 4 mps 743 mmHg 82%
    13:00 +3°C° 0 mm 4 mps 743 mmHg 81%
    14:00 +3°C° 0 mm 3 mps 743 mmHg 79%
    15:00 +3°C° 0 mm 3 mps 743 mmHg 83%
    16:00 +2°C° 0 mm 3 mps 743 mmHg 87%
    17:00 +1°C° 0 mm 3 mps 743 mmHg 91%
    18:00 +2°C° 0 mm 3 mps 743 mmHg 92%
    19:00 +2°C° 0 mm 3 mps 743 mmHg 93%
    20:00 +1°C° 0 mm 4 mps 743 mmHg 94%
    21:00 +1°C° 0 mm 4 mps 743 mmHg 93%
    22:00 +3°C° 0 mm 4 mps 743 mmHg 93%
    23:00 +3°C° 0 mm 4 mps 743 mmHg 93%

    17 December, Tuesday

    Time Temperature Precipitation Wind Pressure Humidity
    00:00 +3°C° 0 mm 4 mps 743 mmHg 92%
    01:00 +4°C° 0 mm 4 mps 743 mmHg 90%
    02:00 +4°C° 0 mm 4 mps 743 mmHg 89%
    03:00 +4°C° 0 mm 4 mps 742 mmHg 89%
    04:00 +4°C° 0 mm 4 mps 742 mmHg 88%
    05:00 +4°C° 0 mm 4 mps 742 mmHg 88%
    06:00 +4°C° 0 mm 4 mps 742 mmHg 88%
    07:00 +4°C° 0 mm 4 mps 741 mmHg 89%
    08:00 +3°C° 0 mm 4 mps 741 mmHg 90%
    09:00 +4°C° 0 mm 4 mps 741 mmHg 88%
    10:00 +4°C° 0 mm 4 mps 741 mmHg 87%
    11:00 +4°C° 0 mm 4 mps 742 mmHg 86%
    12:00 +5°C° 0 mm 4 mps 741 mmHg 85%
    13:00 +5°C° 0 mm 4 mps 741 mmHg 84%
    14:00 +5°C° 0 mm 4 mps 741 mmHg 83%
    15:00 +5°C° 0 mm 4 mps 741 mmHg 85%
    16:00 +4°C° 0 mm 4 mps 741 mmHg 88%
    17:00 +4°C° 0 mm 4 mps 741 mmHg 90%
    18:00 +4°C° 0 mm 4 mps 741 mmHg 90%
    19:00 +4°C° 0 mm 4 mps 741 mmHg 90%
    20:00 +3°C° 0 mm 5 mps 741 mmHg 91%
    21:00 +4°C° 0 mm 4 mps 741 mmHg 90%
    22:00 +4°C° 0 mm 4 mps 741 mmHg 90%
    23:00 +4°C° 0 mm 4 mps 741 mmHg 89%

    18 December, Wednesday

    Time Temperature Precipitation Wind Pressure Humidity
    00:00 +4°C° 0 mm 4 mps 741 mmHg 90%
    01:00 +4°C° 0 mm 3 mps 741 mmHg 90%
    02:00 +4°C° 0 mm 3 mps 741 mmHg 91%
    03:00 +4°C° 0 mm 3 mps 741 mmHg 91%
    04:00 +4°C° 0 mm 3 mps 741 mmHg 91%
    05:00 +4°C° 0 mm 3 mps 741 mmHg 92%
    06:00 +4°C° 0 mm 4 mps 741 mmHg 92%
    07:00 +4°C° 0 mm 4 mps 741 mmHg 91%
    08:00 +4°C° 0 mm 4 mps 741 mmHg 91%
    09:00 +4°C° 0 mm 4 mps 741 mmHg 89%
    10:00 +5°C° 0 mm 4 mps 741 mmHg 88%
    11:00 +5°C° 0 mm 4 mps 742 mmHg 86%
    12:00 +6°C° 0 mm 4 mps 742 mmHg 83%
    13:00 +6°C° 0 mm 4 mps 741 mmHg 80%
    14:00 +7°C° 0 mm 5 mps 741 mmHg 77%
    15:00 +6°C° 0 mm 5 mps 741 mmHg 79%
    16:00 +6°C° 0 mm 5 mps 742 mmHg 81%
    17:00 +5°C° 0 mm 5 mps 742 mmHg 83%
    18:00 +5°C° 0 mm 5 mps 742 mmHg 84%
    19:00 +5°C° 0 mm 5 mps 742 mmHg 86%
    20:00 +5°C° 0 mm 5 mps 743 mmHg 87%
    21:00 +3°C° 0 mm 5 mps 743 mmHg 85%
    22:00 +3°C° 0 mm 5 mps 744 mmHg 83%
    23:00 +3°C° 0 mm 5 mps 744 mmHg 81%

    19 December, Thursday

    Time Temperature Precipitation Wind Pressure Humidity
    00:00 +3°C° 0 mm 4 mps 745 mmHg 83%
    01:00 +3°C° 0 mm 3 mps 745 mmHg 86%
    02:00 +2°C° 0 mm 3 mps 745 mmHg 89%
    03:00 +2°C° 0 mm 2 mps 745 mmHg 91%
    04:00 +2°C° 0 mm 2 mps 746 mmHg 93%
    05:00 +2°C° 0 mm 2 mps 746 mmHg 95%
    06:00 +2°C° 0 mm 2 mps 746 mmHg 95%
    07:00 +2°C° 0 mm 2 mps 746 mmHg 95%
    08:00 +1°C° 0 mm 2 mps 747 mmHg 95%
    09:00 +2°C° 0 mm 2 mps 747 mmHg 94%
    10:00 +2°C° 0 mm 2 mps 748 mmHg 93%
    11:00 +2°C° 0 mm 2 mps 748 mmHg 93%
    12:00 +4°C° 0 mm 1 mps 748 mmHg 91%
    13:00 +4°C° 0 mm 1 mps 748 mmHg 90%
    14:00 +4°C° 0 mm 1 mps 748 mmHg 89%
    15:00 +3°C° 0 mm 1 mps 748 mmHg 91%
    16:00 +3°C° 0 mm 1 mps 748 mmHg 92%
    17:00 +1°C° 0 mm 0 mps 748 mmHg 94%
    18:00 +2°C° 0 mm 1 mps 748 mmHg 94%
    19:00 +2°C° 0 mm 1 mps 748 mmHg 95%
    20:00 +1°C° 0 mm 2 mps 748 mmHg 96%
    21:00 +1°C° 0 mm 2 mps 748 mmHg 95%
    22:00 +1°C° 0 mm 2 mps 748 mmHg 95%
    23:00 +1°C° 0 mm 2 mps 748 mmHg 95%
    Show more